This is the latest recevied weather packets stored in our database for station/object KG5TTF. If no packets are shown the sender has not sent any weather packets the latest 10 day(s).
| Time | Temp. | Humidity | Pressure | Rain* | Wind** | Luminosity | Snow |
|---|---|---|---|---|---|---|---|
| 1777546474 | 0.56° C | 96% | 1023.8 hPa | 0 mm | - | 0 W/m² | - |
| 1777546171 | 1.11° C | 96% | 1024.1 hPa | 1.78 mm | - | 0 W/m² | - |
| 1777545867 | 1.11° C | 96% | 1023.8 hPa | 1.78 mm | - | 0 W/m² | - |
| 1777545564 | 1.11° C | 96% | 1023.8 hPa | 1.27 mm | - | 0 W/m² | - |
| 1777545260 | 1.67° C | 96% | 1023.9 hPa | 1.27 mm | - | 0 W/m² | - |
| 1777544958 | 1.67° C | 96% | 1024.1 hPa | 1.78 mm | - | 0 W/m² | - |
| 1777544655 | 1.67° C | 96% | 1023.8 hPa | 1.78 mm | - | 0 W/m² | - |
| 1777544350 | 1.67° C | 96% | 1024.1 hPa | 0 mm | - | 0 W/m² | - |
| 1777544048 | 1.67° C | 96% | 1023.7 hPa | 0 mm | - | 0 W/m² | - |
| 1777543745 | 1.67° C | 96% | 1023.9 hPa | 1.27 mm | - | 0 W/m² | - |
| 1777543440 | 1.67° C | 96% | 1023.8 hPa | 0 mm | - | 0 W/m² | - |
| 1777543136 | 1.67° C | 96% | 1024.2 hPa | 1.78 mm | - | 0 W/m² | - |
| 1777542833 | 1.67° C | 96% | 1023.9 hPa | 1.78 mm | - | 0 W/m² | - |
| 1777542529 | 1.67° C | 96% | 1024.2 hPa | 0 mm | - | 0 W/m² | - |
| 1777542225 | 1.67° C | 96% | 1023.9 hPa | 1.27 mm | - | 0 W/m² | - |
| 1777541923 | 1.67° C | 96% | 1024.1 hPa | 1.27 mm | - | 0 W/m² | - |
| 1777541620 | 1.67° C | 96% | 1024.2 hPa | 0 mm | - | 0 W/m² | - |
| 1777541317 | 1.67° C | 96% | 1023.9 hPa | 0 mm | - | 0 W/m² | - |
| 1777541012 | 1.67° C | 96% | 1024.1 hPa | 0 mm | - | 0 W/m² | - |
| 1777540710 | 1.67° C | 96% | 1023.8 hPa | 0 mm | - | 0 W/m² | - |
| 1777540407 | 1.67° C | 96% | 1024.1 hPa | 1.78 mm | - | 0 W/m² | - |
| 1777540104 | 1.67° C | 96% | 1023.8 hPa | 1.78 mm | - | 0 W/m² | - |
| 1777539803 | 1.67° C | 96% | 1023.9 hPa | 1.27 mm | - | 0 W/m² | - |
| 1777539500 | 1.67° C | 96% | 1023.9 hPa | 3.05 mm | - | 0 W/m² | - |
| 1777539196 | 2.22° C | 96% | 1024.2 hPa | 1.78 mm | - | 0 W/m² | - |
* Rain latest hour (hover to see other rain measurements)
** Current wind speed in m/s (hover to see current wind gust speed)